Regional Weather Roundup
Issued by NWS

Home | Current Version | Previous Version | Graphics & Text | Print | Product List | Glossary On
Versions: 1 2 3 4 5 6 7 8 9 10 11 12 13 14 15 16 17 18 19 20 21 22 23 24 25 26 27 28 29 30 31 32 33 34 35 36 37 38 39 40 41 42 43 44 45 46 47 48 49 50
000
ASUS43 KIND 261409
RWRIN

WEATHER ROUNDUP FOR INDIANA
NATIONAL WEATHER SERVICE INDIANAPOLIS IN
1000 AM EDT TUE JUL 26 2016

NOTE: "FAIR" INDICATES FEW OR NO CLOUDS BELOW 12,000 FEET WITH NO
SIGNIFICANT WEATHER AND/OR OBSTRUCTIONS TO VISIBILITY.

* - STATION DOES NOT REPORT WEATHER SUCH AS PRECIPITATION OR FOG.

+ - STATION NOT QUALITY CONTROLLED BY THE NATIONAL WEATHER SERVICE.
    USE DATA WITH CAUTION...ESPECIALLY DEWPOINT AND RELATIVE
    HUMIDITY OBSERVATIONS.

INZ001>003-010>013-019-020-261500-
NORTHWEST INDIANA

CITY           SKY/WX    TMP DP  RH WIND       PRES   REMARKS
GARY /AIRPORT/ MOSUNNY   81  66  61 VRB3      30.07S
KNOX *+        SUNNY     75  57  53 E5        30.07S
LA PORTE +     SUNNY     78  70  74 E3        30.08S
MICHIGAN CITY+ SUNNY     77  66  69 CALM      30.08R
MONTICELLO +   CLOUDY    73  63  70 E3        30.06S
RENSSELAER +   SUNNY     75  66  73 E7        30.08R
VALPARAISO     SUNNY     78  65  63 E6        30.08S

$$

LMZ046-743>745-261500-
SOUTHERN LAKE MICHIGAN

STATION/POSITION TIME  TEMP    WIND        PRES    WAVE
                       AIR SEA DIR/SP/G            HT
                 (UTC) (F)     (DEG/KT/KT) (MB)    (FT)
BURNS HARBOR     1300   73        CALM     1018.6S
MICHIGAN CITY    1300   75      30/  4/  4   N/A
5NW MICH CITY    1400   75 75   20/  2/  2   N/A     0

$$

INZ004-005-014>016-021>024-261500-
NORTH CENTRAL INDIANA

CITY           SKY/WX    TMP DP  RH WIND       PRES   REMARKS
ELKHART        SUNNY     77  68  73 E8        30.08F
GOSHEN         SUNNY     77  64  64 E7        30.08F
LOGANSPORT +   PTSUNNY   73  64  73 E7        30.08S
PERU/GRISSOM   PTSUNNY   77  65  67 E9        30.06S
ROCHESTER +    SUNNY     79  68  69 E8        30.08S
SOUTH BEND     SUNNY     77  64  64 E5        30.08S
WARSAW +       SUNNY     75  64  69 E6        30.08S

$$

INZ006>009-017-018-025>027-261500-
NORTHEAST INDIANA

CITY           SKY/WX    TMP DP  RH WIND       PRES   REMARKS
ANGOLA *+        N/A     75  68  78 NE3       30.08F
AUBURN +       SUNNY     77  61  57 NE5       30.09S
FORT WAYNE     MOSUNNY   79  62  56 E6        30.08S
HUNTINGTON +   MOSUNNY   74  66  76 E5        30.08S

$$

INZ028-029-035-036-043>045-051>053-261500-
WEST CENTRAL INDIANA

CITY           SKY/WX    TMP DP  RH WIND       PRES   REMARKS
CRAWFORDSVL +  CLOUDY    72  67  85 CALM      30.08R
GREENCASTLE +  CLOUDY    75  70  83 E3        30.07R
LAFAYETTE      CLOUDY    74  66  76 E7        30.06S
TERRE HAUTE    TSTM      70  67  90 SW8       30.08S FOG

$$

INZ030>032-037>040-046>048-054>057-064-065-261500-
CENTRAL INDIANA

CITY           SKY/WX    TMP DP  RH WIND       PRES   REMARKS
ANDERSON       SUNNY     75  64  69 NE6       30.07S
COLUMBUS       LGT RAIN  70  70 100 E7        30.05F FOG
INDIANAPOLIS   PTSUNNY   79  63  57 E8        30.06S
-EAGLE CREEK   CLOUDY    78  65  63 VRB3      30.06R
KOKOMO *+      CLOUDY    73  64  73 E8        30.08R
MARION +       MOSUNNY   74  64  72 E6        30.09R
MT COMFORT *+  PTSUNNY   75  66  73 E6        30.07S
SHELBYVILLE    CLOUDY    78  67  68 VRB3      30.06R
ZIONSVILLE +   CLOUDY    74  66  75 E5        30.08S

$$

INZ033-034-041-042-049-050-058-059-261500-
EAST CENTRAL INDIANA

CITY           SKY/WX    TMP DP  RH WIND       PRES   REMARKS
MUNCIE         SUNNY     76  66  71 E7        30.07S

$$

INZ060-061-067>069-081>083-085>088-261500-
SOUTHWEST INDIANA

CITY           SKY/WX    TMP DP  RH WIND       PRES   REMARKS
EVANSVILLE     PTSUNNY   79  74  84 CALM      30.03S
HUNTINGBURG *+ PTSUNNY   81  73  78 CALM      30.03F
WASHINGTON +   PTSUNNY   79  79  99 MISG      30.03S

$$

INZ062-063-066-070>080-084-089>092-261500-
SOUTH CENTRAL AND SOUTHEAST INDIANA

CITY           SKY/WX    TMP DP  RH WIND       PRES   REMARKS
BLOOMINGTON    LGT RAIN  74  70  87 N6        30.06R
MADISON *+     CLOUDY    77  73  88 CALM      30.07S
NORTH VERNON + CLOUDY   N/A N/A N/A CALM      30.06R

$$





USA.gov is the U.S. government's official web portal to all federal, state and local government web resources and services.